| time (UTC) | temp F | wind direction | speed MPH | gust MPH | rain 1hr in | rain 24hr in | rain mn in | humidity % | barometer mb |
| 20260505041654 | 60 | 242 | 0.0 | 0.0 | 0.00 | 0.00 | 0.00 | 65 | 1012.4 |
| 20260505041152 | 60 | 242 | 0.0 | 0.0 | 0.00 | 0.00 | 0.00 | 64 | 1012.3 |
| 20260505040649 | 61 | 242 | 0.0 | 0.0 | 0.00 | 0.00 | 0.00 | 63 | 1012.2 |
| 20260505040146 | 61 | 16 | 0.0 | 0.0 | 0.00 | 0.00 | 0.00 | 62 | 1012.5 |
| 20260505035642 | 62 | 263 | 0.0 | 1.0 | 0.00 | 0.00 | 0.00 | 62 | 1012.4 |
| 20260505035138 | 62 | 317 | 0.0 | 0.0 | 0.00 | 0.00 | 0.00 | 62 | 1012.4 |
| 20260505034635 | 62 | 63 | 0.0 | 0.0 | 0.00 | 0.00 | 0.00 | 62 | 1012.3 |
| 20260505034132 | 61 | 150 | 1.0 | 1.0 | 0.00 | 0.00 | 0.00 | 61 | 1012.3 |
| 20260505033628 | 62 | 104 | 0.0 | 0.0 | 0.00 | 0.00 | 0.00 | 62 | 1012.4 |
| 20260505033127 | 61 | 232 | 0.0 | 0.0 | 0.00 | 0.00 | 0.00 | 62 | 1012.5 |
| 20260505032625 | 62 | 309 | 0.0 | 0.0 | 0.00 | 0.00 | 0.00 | 62 | 1012.4 |
| 20260505032121 | 62 | 140 | 0.0 | 0.0 | 0.00 | 0.00 | 0.00 | 64 | 1012.4 |
| 20260505031618 | 62 | 87 | 0.0 | 0.0 | 0.00 | 0.00 | 0.00 | 61 | 1012.1 |
| 20260505031114 | 62 | 8 | 0.0 | 0.0 | 0.00 | 0.00 | 0.00 | 62 | 1012.4 |
| 20260505030611 | 62 | 8 | 0.0 | 0.0 | 0.00 | 0.00 | 0.00 | 61 | 1012.4 |
| 20260505030107 | 62 | 147 | 0.0 | 0.0 | 0.00 | 0.00 | 0.00 | 61 | 1012.4 |
| 20260505025602 | 62 | 117 | 0.0 | 0.0 | 0.00 | 0.00 | 0.00 | 61 | 1012.4 |
| 20260505025057 | 63 | 329 | 0.0 | 0.0 | 0.00 | 0.00 | 0.00 | 59 | 1012.5 |
| 20260505024553 | 63 | 329 | 0.0 | 0.0 | 0.00 | 0.00 | 0.00 | 60 | 1012.4 |
| 20260505024051 | 64 | 292 | 0.0 | 0.0 | 0.00 | 0.00 | 0.00 | 58 | 1012.4 |
| 20260505023548 | 63 | 220 | 0.0 | 0.0 | 0.00 | 0.00 | 0.00 | 60 | 1012.3 |
| 20260505023045 | 62 | 258 | 0.0 | 1.0 | 0.00 | 0.00 | 0.00 | 61 | 1012.3 |
| 20260505022543 | 62 | 19 | 0.0 | 0.0 | 0.00 | 0.00 | 0.00 | 63 | 1012.1 |
| 20260505022040 | 62 | 47 | 0.0 | 0.0 | 0.00 | 0.00 | 0.00 | 62 | 1012.3 |
| 20260505021536 | 62 | 32 | 0.0 | 0.0 | 0.00 | 0.00 | 0.00 | 64 | 1012.4 |
| 20260505021033 | 62 | 4 | 0.0 | 0.0 | 0.00 | 0.00 | 0.00 | 63 | 1012.5 |
| 20260505020532 | 62 | 3 | 0.0 | 0.0 | 0.00 | 0.00 | 0.00 | 63 | 1012.3 |
| 20260505020030 | 63 | 75 | 0.0 | 0.0 | 0.00 | 0.00 | 0.00 | 62 | 1012.3 |
| 20260505015527 | 62 | 47 | 0.0 | 0.0 | 0.00 | 0.00 | 0.00 | 62 | 1012.4 |
| 20260505015024 | 63 | 319 | 0.0 | 0.0 | 0.00 | 0.00 | 0.00 | 63 | 1012.2 |
| 20260505014520 | 63 | 48 | 0.0 | 0.0 | 0.00 | 0.00 | 0.00 | 61 | 1012.2 |
| 20260505014018 | 63 | 32 | 0.0 | 0.0 | 0.00 | 0.00 | 0.00 | 63 | 1012.1 |
| 20260505013515 | 63 | 28 | 0.0 | 0.0 | 0.00 | 0.00 | 0.00 | 62 | 1012.1 |
| 20260505013012 | 63 | 2 | 0.0 | 0.0 | 0.00 | 0.00 | 0.00 | 61 | 1012.2 |
| 20260505012510 | 63 | 357 | 0.0 | 0.0 | 0.00 | 0.00 | 0.00 | 63 | 1011.9 |
| 20260505012007 | 63 | 129 | 0.0 | 0.0 | 0.00 | 0.00 | 0.00 | 59 | 1011.9 |
| 20260505011503 | 64 | 146 | 0.0 | 0.0 | 0.00 | 0.00 | 0.00 | 59 | 1012.1 |
| 20260505011000 | 64 | 129 | 0.0 | 0.0 | 0.00 | 0.00 | 0.00 | 59 | 1012.0 |
| 20260505010455 | 65 | 119 | 0.0 | 0.0 | 0.00 | 0.00 | 0.00 | 58 | 1011.9 |
| 20260505005951 | 65 | 67 | 0.0 | 0.0 | 0.00 | 0.00 | 0.00 | 57 | 1011.9 |
| 20260505005448 | 66 | 94 | 0.0 | 0.0 | 0.00 | 0.00 | 0.00 | 55 | 1011.9 |
| 20260505004946 | 66 | 41 | 0.0 | 0.0 | 0.00 | 0.00 | 0.00 | 54 | 1011.8 |
| 20260505004443 | 67 | 142 | 1.0 | 1.0 | 0.00 | 0.00 | 0.00 | 54 | 1011.8 |
| 20260505003939 | 66 | 65 | 0.0 | 0.0 | 0.00 | 0.00 | 0.00 | 53 | 1011.9 |
| 20260505003437 | 67 | 93 | 1.0 | 2.0 | 0.00 | 0.00 | 0.00 | 53 | 1011.8 |
| 20260505002933 | 67 | 72 | 0.0 | 0.0 | 0.00 | 0.00 | 0.00 | 52 | 1011.8 |
| 20260505002429 | 67 | 295 | 0.0 | 0.0 | 0.00 | 0.00 | 0.00 | 52 | 1011.9 |
| 20260505001928 | 67 | 67 | 0.0 | 0.0 | 0.00 | 0.00 | 0.00 | 50 | 1011.8 |
| 20260505001425 | 68 | 161 | 0.0 | 0.0 | 0.00 | 0.00 | 0.00 | 50 | 1011.8 |
| 20260505000922 | 68 | 61 | 0.0 | 0.0 | 0.00 | 0.00 | 0.00 | 49 | 1011.6 |
| 20260505000420 | 69 | 168 | 0.0 | 0.0 | 0.00 | 0.00 | 0.00 | 48 | 1011.7 |
| 20260504235916 | 69 | 172 | 1.0 | 1.0 | 0.00 | 0.00 | 0.00 | 48 | 1011.5 |
| 20260504235414 | 69 | 269 | 0.0 | 0.0 | 0.00 | 0.00 | 0.00 | 47 | 1011.7 |
| 20260504234910 | 69 | 84 | 0.0 | 0.0 | 0.00 | 0.00 | 0.00 | 47 | 1011.6 |
| 20260504234407 | 69 | 266 | 0.0 | 0.0 | 0.00 | 0.00 | 0.00 | 47 | 1011.6 |
| 20260504233904 | 70 | 166 | 1.0 | 2.0 | 0.00 | 0.00 | 0.00 | 46 | 1011.6 |
| 20260504233359 | 70 | 142 | 0.0 | 1.0 | 0.00 | 0.00 | 0.00 | 45 | 1011.7 |
| 20260504232856 | 70 | 173 | 0.0 | 1.0 | 0.00 | 0.00 | 0.00 | 46 | 1011.6 |
| 20260504232353 | 71 | 129 | 0.0 | 1.0 | 0.00 | 0.00 | 0.00 | 46 | 1011.8 |
| 20260504231850 | 71 | 214 | 1.0 | 1.0 | 0.00 | 0.00 | 0.00 | 45 | 1011.6 |
| 20260504231347 | 72 | 41 | 0.0 | 1.0 | 0.00 | 0.00 | 0.00 | 45 | 1011.6 |
| 20260504230843 | 72 | 143 | 1.0 | 1.0 | 0.00 | 0.00 | 0.00 | 44 | 1011.9 |
| 20260504230341 | 71 | 85 | 0.0 | 1.0 | 0.00 | 0.00 | 0.00 | 44 | 1011.7 |
| 20260504225839 | 72 | 59 | 3.0 | 4.0 | 0.00 | 0.00 | 0.00 | 44 | 1011.7 |
| 20260504225335 | 72 | 171 | 2.0 | 2.0 | 0.00 | 0.00 | 0.00 | 43 | 1011.6 |
| 20260504224833 | 73 | 338 | 0.0 | 1.0 | 0.00 | 0.00 | 0.00 | 41 | 1011.6 |
| 20260504224330 | 73 | 54 | 0.0 | 1.0 | 0.00 | 0.00 | 0.00 | 42 | 1011.6 |
| 20260504223826 | 73 | 355 | 0.0 | 0.0 | 0.00 | 0.00 | 0.00 | 42 | 1011.5 |
| 20260504223322 | 74 | 75 | 2.0 | 4.0 | 0.00 | 0.00 | 0.00 | 41 | 1011.5 |
| 20260504222819 | 74 | 284 | 1.0 | 1.0 | 0.00 | 0.00 | 0.00 | 40 | 1011.3 |
| 20260504222316 | 75 | 168 | 0.0 | 1.0 | 0.00 | 0.00 | 0.00 | 39 | 1011.5 |
| 20260504221814 | 75 | 4 | 0.0 | 1.0 | 0.00 | 0.00 | 0.00 | 39 | 1011.4 |
| 20260504221310 | 75 | 5 | 0.0 | 0.0 | 0.00 | 0.00 | 0.00 | 38 | 1011.4 |
| 20260504220807 | 76 | 47 | 0.0 | 1.0 | 0.00 | 0.00 | 0.00 | 38 | 1011.5 |
| 20260504220304 | 77 | 65 | 2.0 | 2.0 | 0.00 | 0.00 | 0.00 | 37 | 1011.5 |
| 20260504215802 | 78 | 351 | 2.0 | 3.0 | 0.00 | 0.00 | 0.00 | 34 | 1011.2 |
| 20260504215258 | 78 | 328 | 1.0 | 1.0 | 0.00 | 0.00 | 0.00 | 34 | 1011.2 |
| 20260504214753 | 78 | 202 | 1.0 | 2.0 | 0.00 | 0.00 | 0.00 | 34 | 1011.4 |
| 20260504214244 | 78 | 121 | 2.0 | 3.0 | 0.00 | 0.00 | 0.00 | 34 | 1011.3 |
| 20260504213741 | 78 | 260 | 2.0 | 2.0 | 0.00 | 0.00 | 0.00 | 34 | 1011.3 |
| 20260504213237 | 77 | 310 | 1.0 | 1.0 | 0.00 | 0.00 | 0.00 | 34 | 1011.4 |
| 20260504212734 | 78 | 141 | 4.0 | 4.0 | 0.00 | 0.00 | 0.00 | 34 | 1011.5 |
| 20260504212225 | 77 | 227 | 1.0 | 1.0 | 0.00 | 0.00 | 0.00 | 34 | 1011.5 |
| 20260504211722 | 78 | 16 | 1.0 | 2.0 | 0.00 | 0.00 | 0.00 | 35 | 1011.3 |
| 20260504211213 | 79 | 188 | 1.0 | 2.0 | 0.00 | 0.00 | 0.00 | 33 | 1011.5 |
| 20260504210711 | 79 | 291 | 3.0 | 4.0 | 0.00 | 0.00 | 0.00 | 33 | 1011.3 |
| 20260504210207 | 79 | 130 | 2.0 | 3.0 | 0.00 | 0.00 | 0.00 | 32 | 1011.5 |
| 20260504205705 | 79 | 81 | 1.0 | 2.0 | 0.00 | 0.00 | 0.00 | 33 | 1011.3 |
| 20260504205202 | 78 | 147 | 2.0 | 3.0 | 0.00 | 0.00 | 0.00 | 34 | 1011.7 |
| 20260504204701 | 78 | 315 | 1.0 | 1.0 | 0.00 | 0.00 | 0.00 | 34 | 1011.6 |
| 20260504204159 | 79 | 216 | 1.0 | 2.0 | 0.00 | 0.00 | 0.00 | 34 | 1011.8 |
| 20260504203657 | 78 | 11 | 1.0 | 2.0 | 0.00 | 0.00 | 0.00 | 33 | 1011.7 |
| 20260504203154 | 79 | 261 | 1.0 | 2.0 | 0.00 | 0.00 | 0.00 | 34 | 1011.5 |
| 20260504202649 | 80 | 12 | 2.0 | 2.0 | 0.00 | 0.00 | 0.00 | 33 | 1011.8 |
| 20260504202146 | 80 | 215 | 2.0 | 2.0 | 0.00 | 0.00 | 0.00 | 32 | 1011.8 |
| 20260504201643 | 79 | 309 | 0.0 | 0.0 | 0.00 | 0.00 | 0.00 | 33 | 1011.7 |
| 20260504201141 | 79 | 25 | 2.0 | 2.0 | 0.00 | 0.00 | 0.00 | 34 | 1011.8 |
| 20260504200638 | 79 | 72 | 1.0 | 1.0 | 0.00 | 0.00 | 0.00 | 33 | 1012.0 |
| 20260504200134 | 78 | 121 | 1.0 | 2.0 | 0.00 | 0.00 | 0.00 | 33 | 1011.9 |
| 20260504195630 | 78 | 289 | 2.0 | 2.0 | 0.00 | 0.00 | 0.00 | 34 | 1012.2 |
| 20260504195127 | 78 | 184 | 1.0 | 2.0 | 0.00 | 0.00 | 0.00 | 35 | 1012.1 |
| 20260504194624 | 78 | 192 | 2.0 | 3.0 | 0.00 | 0.00 | 0.00 | 34 | 1012.1 |
| 20260504194120 | 78 | 5 | 1.0 | 1.0 | 0.00 | 0.00 | 0.00 | 34 | 1012.4 |
| 20260504193616 | 79 | 5 | 0.0 | 1.0 | 0.00 | 0.00 | 0.00 | 32 | 1012.5 |
| 20260504193114 | 78 | 41 | 0.0 | 1.0 | 0.00 | 0.00 | 0.00 | 34 | 1012.6 |
| 20260504192612 | 78 | 218 | 2.0 | 2.0 | 0.00 | 0.00 | 0.00 | 34 | 1012.6 |
| 20260504192110 | 78 | 331 | 1.0 | 2.0 | 0.00 | 0.00 | 0.00 | 33 | 1012.9 |
| 20260504191608 | 79 | 59 | 0.0 | 1.0 | 0.00 | 0.00 | 0.00 | 31 | 1012.9 |
| 20260504191104 | 78 | 357 | 2.0 | 4.0 | 0.00 | 0.00 | 0.00 | 34 | 1012.8 |
| 20260504190600 | 78 | 182 | 0.0 | 0.0 | 0.00 | 0.00 | 0.00 | 34 | 1012.9 |
| 20260504190056 | 77 | 196 | 4.0 | 4.0 | 0.00 | 0.00 | 0.00 | 34 | 1013.0 |
| 20260504185553 | 76 | 131 | 1.0 | 1.0 | 0.00 | 0.00 | 0.00 | 32 | 1012.9 |
| 20260504185050 | 77 | 331 | 2.0 | 3.0 | 0.00 | 0.00 | 0.00 | 33 | 1013.2 |
| 20260504184545 | 77 | 161 | 1.0 | 2.0 | 0.00 | 0.00 | 0.00 | 33 | 1013.4 |
| 20260504184041 | 78 | 330 | 4.0 | 4.0 | 0.00 | 0.00 | 0.00 | 32 | 1013.4 |
| 20260504183538 | 77 | 326 | 2.0 | 3.0 | 0.00 | 0.00 | 0.00 | 31 | 1013.5 |
| 20260504183036 | 78 | 69 | 1.0 | 1.0 | 0.00 | 0.00 | 0.00 | 33 | 1013.5 |
| 20260504182533 | 77 | 279 | 0.0 | 1.0 | 0.00 | 0.00 | 0.00 | 33 | 1013.4 |
| 20260504182031 | 78 | 224 | 2.0 | 2.0 | 0.00 | 0.00 | 0.00 | 33 | 1013.5 |
| 20260504181527 | 75 | 79 | 1.0 | 2.0 | 0.00 | 0.00 | 0.00 | 33 | 1013.4 |
| 20260504181026 | 77 | 311 | 3.0 | 4.0 | 0.00 | 0.00 | 0.00 | 34 | 1013.7 |
| 20260504180524 | 76 | 258 | 2.0 | 3.0 | 0.00 | 0.00 | 0.00 | 34 | 1013.6 |
| 20260504180023 | 75 | 349 | 0.0 | 1.0 | 0.00 | 0.00 | 0.00 | 34 | 1013.7 |
| 20260504175519 | 77 | 129 | 1.0 | 1.0 | 0.00 | 0.00 | 0.00 | 33 | 1013.8 |
| 20260504175016 | 76 | 39 | 1.0 | 2.0 | 0.00 | 0.00 | 0.00 | 33 | 1014.0 |
| 20260504174514 | 76 | 40 | 1.0 | 2.0 | 0.00 | 0.00 | 0.00 | 33 | 1014.0 |
| 20260504174011 | 76 | 324 | 0.0 | 0.0 | 0.00 | 0.00 | 0.00 | 33 | 1014.1 |
| 20260504173508 | 75 | 241 | 1.0 | 2.0 | 0.00 | 0.00 | 0.00 | 34 | 1014.2 |
| 20260504173005 | 76 | 141 | 2.0 | 3.0 | 0.00 | 0.00 | 0.00 | 33 | 1014.2 |
| 20260504172501 | 75 | 247 | 1.0 | 2.0 | 0.00 | 0.00 | 0.00 | 34 | 1014.3 |
| 20260504171957 | 75 | 159 | 2.0 | 3.0 | 0.00 | 0.00 | 0.00 | 34 | 1014.2 |
| 20260504171455 | 74 | 76 | 0.0 | 1.0 | 0.00 | 0.00 | 0.00 | 33 | 1014.2 |
| 20260504170951 | 73 | 13 | 3.0 | 4.0 | 0.00 | 0.00 | 0.00 | 34 | 1014.3 |
| 20260504170447 | 74 | 3 | 1.0 | 1.0 | 0.00 | 0.00 | 0.00 | 34 | 1014.4 |
| 20260504160408 | 72 | 289 | 2.0 | 3.0 | 0.00 | 0.00 | 0.00 | 34 | 1015.1 |
| 20260504150832 | 71 | 72 | 0.0 | 1.0 | 0.00 | 0.00 | 0.00 | 36 | 1015.9 |
| 20260504150328 | 69 | 140 | 1.0 | 1.0 | 0.00 | 0.00 | 0.00 | 37 | 1015.6 |
| 20260504141258 | 66 | 270 | 0.0 | 1.0 | 0.00 | 0.00 | 0.00 | 43 | 1015.9 |
| 20260504140755 | 67 | 244 | 0.0 | 1.0 | 0.00 | 0.00 | 0.00 | 44 | 1016.2 |
| 20260504140250 | 66 | 299 | 0.0 | 1.0 | 0.00 | 0.00 | 0.00 | 43 | 1016.0 |
| 20260504130719 | 59 | 96 | 0.0 | 0.0 | 0.00 | 0.00 | 0.00 | 52 | 1016.4 |
| 20260504130214 | 59 | 343 | 1.0 | 2.0 | 0.00 | 0.00 | 0.00 | 54 | 1016.4 |
| 20260504120139 | 53 | 264 | 2.0 | 2.0 | 0.00 | 0.00 | 0.00 | 66 | 1017.0 |
| 20260504110606 | 48 | 36 | 0.0 | 0.0 | 0.00 | 0.00 | 0.00 | 73 | 1016.7 |
| 20260504100528 | 47 | 320 | 0.0 | 0.0 | 0.00 | 0.00 | 0.00 | 79 | 1016.7 |
| 20260504081921 | 45 | 15 | 0.0 | 0.0 | 0.00 | 0.00 | 0.00 | 83 | 1017.2 |
| 20260504081418 | 44 | 15 | 0.0 | 0.0 | 0.00 | 0.00 | 0.00 | 83 | 1017.2 |
| 20260504080914 | 44 | 15 | 0.0 | 0.0 | 0.00 | 0.00 | 0.00 | 84 | 1017.2 |
| 20260504080411 | 44 | 15 | 0.0 | 0.0 | 0.00 | 0.00 | 0.00 | 84 | 1017.1 |
| 20260504070338 | 44 | 25 | 0.0 | 0.0 | 0.00 | 0.00 | 0.00 | 84 | 1017.4 |
| 20260504060247 | 42 | 345 | 0.0 | 0.0 | 0.00 | 0.00 | 0.00 | 87 | 1017.4 |
| 20260504050710 | 42 | 351 | 0.0 | 0.0 | 0.00 | 0.00 | 0.00 | 85 | 1017.6 |
| 20260504050206 | 42 | 351 | 0.0 | 0.0 | 0.00 | 0.00 | 0.00 | 85 | 1017.5 |
| 20260504045703 | 42 | 357 | 0.0 | 0.0 | 0.00 | 0.00 | 0.00 | 85 | 1017.4 |
| 20260504045157 | 42 | 357 | 0.0 | 0.0 | 0.00 | 0.00 | 0.00 | 85 | 1017.5 |
| 20260504044656 | 42 | 359 | 0.0 | 0.0 | 0.00 | 0.00 | 0.00 | 84 | 1017.5 |
| 20260504044153 | 42 | 0 | 0.0 | 0.0 | 0.00 | 0.00 | 0.00 | 83 | 1017.5 |
| 20260504043649 | 42 | 0 | 0.0 | 0.0 | 0.00 | 0.00 | 0.00 | 83 | 1017.6 |
| 20260504043147 | 42 | 359 | 0.0 | 0.0 | 0.00 | 0.00 | 0.00 | 83 | 1017.4 |
| 20260504042644 | 42 | 348 | 0.0 | 0.0 | 0.00 | 0.00 | 0.00 | 83 | 1017.6 |
| 20260504042141 | 43 | 9 | 0.0 | 0.0 | 0.00 | 0.00 | 0.00 | 83 | 1017.5 |